Meteo Giornale » Osservazioni meteo Azerbaijan » Nakhchivan
ore: 01:30 - Osservazioni Meteo Nakhchivan
Lat. 39° 11' N Lon. 45° 27' E Alt. 873 metri s.l.m.
21 °C
Nuvoloso
Temp. 24 Ore
17 °C
28 °C
Est
18.5 Km/h
Dew point 12 °C
Umidità 56 %
Visibilità 10 Km
Il sole sorge alle ore 06:27
Il sole tramonta alle ore 19:28
| Data e Ora | Cielo e Fenomeni | T °C | DP °C | Um. % | Pres. hPa | Vis. km | Vento km/h | |
|---|---|---|---|---|---|---|---|---|
| Oggi h: 01:30 | Nuvoloso | 21 | 12 | 56 | 1016 | 10 | E 18.5 | |
| Oggi h: 01:00 | Nuvoloso | 20 | 12 | 59 | 1016 | 10 | E 14.8 | |
| Oggi h: 00:30 | Nuvoloso | 21 | 12 | 56 | 1016 | 10 | E 14.8 | |
| Oggi h: 00:00 | Nuvoloso | 22 | 12 | 53 | 1016 | 10 | E 22.2 | |
| Ieri h: 23:30 | Nuvoloso | 22 | 12 | 53 | 1016 | 10 | E/SE 18.5 | |
| Ieri h: 23:00 | Nuvoloso | 22 | 12 | 53 | 1016 | 10 | E 18.5 | |
| Ieri h: 22:30 | Nuvoloso | 22 | 12 | 53 | 1015 | 10 | E 22.2 | |
| Ieri h: 22:00 | Nuvoloso | 22 | 12 | 53 | 1015 | 10 | E/SE 18.5 | |
| Ieri h: 21:30 | Nuvoloso | 23 | 12 | 49 | 1015 | 10 | E/SE 18.5 | |
| Ieri h: 21:00 | Nuvoloso | 23 | 12 | 49 | 1015 | 10 | E/SE 14.8 | |
| Ieri h: 20:30 | Nuvoloso | 23 | 12 | 49 | 1015 | 10 | SE 11.1 | |
| Ieri h: 20:00 | Nuvoloso | 24 | 12 | 47 | 1014 | 10 | SE 11.1 | |
| Ieri h: 19:30 | Nuvoloso | 26 | 10 | 36 | 1014 | 10 | S/SE 7.4 | |
| Ieri h: 19:00 | Nuvoloso | 27 | 10 | 34 | 1014 | 10 | S/SE 7.4 | |
| Ieri h: 18:30 | Nuvoloso | 27 | 10 | 34 | 1014 | 10 | S 7.4 | |
| Ieri h: 18:00 | Molto Nuvoloso | 28 | 10 | 32 | 1014 | 10 | N 3.7 | |
| Ieri h: 17:30 | Molto Nuvoloso | 27 | 10 | 34 | 1014 | 10 | O/NO 11.1 | |
| Ieri h: 17:00 | Molto Nuvoloso | 27 | 11 | 36 | 1014 | 10 | O 14.8 | |
| Ieri h: 16:30 | Molto Nuvoloso | 27 | 11 | 36 | 1014 | 10 | O 14.8 | |
| Ieri h: 16:00 | Molto Nuvoloso | 27 | 11 | 36 | 1014 | 10 | O 11.1 | |
| Ieri h: 15:30 | Molto Nuvoloso | 27 | 11 | 36 | 1014 | 10 | S/SO 11.1 | |
| Ieri h: 15:00 | Molto Nuvoloso | 27 | 11 | 36 | 1014 | 10 | S 7.4 | |
| Ieri h: 14:30 | Molto Nuvoloso | 26 | 11 | 39 | 1014 | 10 | N 3.7 | |
| Ieri h: 14:00 | Molto Nuvoloso | 25 | 12 | 44 | 1015 | 10 | E/SE 11.1 | |
| Ieri h: 13:30 | Molto Nuvoloso | 24 | 13 | 50 | 1015 | 10 | SE 11.1 | |
| Ieri h: 13:00 | Molto Nuvoloso | 23 | 13 | 53 | 1015 | 10 | S/SE 11.1 | |
| Ieri h: 12:30 | Molto Nuvoloso | 22 | 12 | 53 | 1016 | 10 | S 7.4 | |
| Ieri h: 12:00 | Molto Nuvoloso | 22 | 13 | 56 | 1016 | 10 | S 7.4 | |
| Ieri h: 11:30 | Pioggia | 21 | 13 | 60 | 1016 | 10 | S 7.4 | |
| Ieri h: 11:00 | Pioggia | 20 | 13 | 64 | 1016 | 10 | S/SE 11.1 | |
| Ieri h: 10:30 | Pioggia | 20 | 13 | 64 | 1017 | 10 | S 11.1 | |
| Ieri h: 10:00 | Pioggia | 21 | 12 | 56 | 1016 | 10 | S/SE 7.4 | |
| Ieri h: 09:30 | Pioggia | 20 | 12 | 59 | 1016 | 10 | S/SE 14.8 | |
| Ieri h: 09:00 | Pioggia | 21 | 11 | 52 | 1016 | 10 | N 3.7 | |
| Ieri h: 08:30 | Nuvoloso | 20 | 12 | 59 | 1016 | 10 | S/SO 7.4 | |
| Ieri h: 08:00 | Nuvoloso | 20 | 11 | 56 | 1016 | 10 | S/SO 7.4 | |
| Ieri h: 07:30 | Nuvoloso | 20 | 11 | 56 | 1016 | 10 | E 7.4 | |
| Ieri h: 07:15 | Nuvoloso | 19 | 11 | 59 | 1015 | 10 | E 7.4 | |
| Ieri h: 07:00 | Nuvoloso | 17 | 10 | 63 | 1015 | 10 | E/NE 7.4 | |
| Ieri h: 06:30 | Nuvoloso | 19 | 11 | 59 | 1015 | 10 | E 7.4 | |
| Ieri h: 06:00 | Nuvoloso | 18 | 11 | 63 | 1015 | 10 | E 7.4 | |
| Ieri h: 05:30 | Nuvoloso | 18 | 10 | 59 | 1015 | 10 | N 0 | |
| Ieri h: 05:00 | Nuvoloso | 18 | 10 | 59 | 1015 | 10 | E 7.4 | |
| Ieri h: 04:30 | Nuvoloso | 19 | 10 | 55 | 1015 | 10 | E 11.1 | |
| Ieri h: 04:00 | Nuvoloso | 19 | 10 | 55 | 1014 | 10 | E/NE 11.1 | |
| Ieri h: 03:30 | Nuvoloso | 19 | 10 | 55 | 1014 | 10 | NE 11.1 | |
| Ieri h: 03:00 | Nuvoloso | 19 | 10 | 55 | 1014 | 10 | E/NE 11.1 | |



